Kuchera_Ratio
3.4 4.8 5.9 5.6 5.1 4.5 5.2 4.8 4.4 3.6 3.1 3.1 2.5 2.2 2.3 2.2 1.4 1.7 1.9 1.9 2.6 1.7 0.0 0.0 0.0 0.0 0.0 0.0 0.0 0.0 0.0 0.0 0.0 0.0 0.0 0.0 0.0 0.0 0.0 0.0 0.0 0.0 0.0
5.6 5.7 6.3 5.8 5.5 6.6 6.6 5.5 4.6 5.1 3.6 1.6 2.4 3.1 2.4 1.6 0.8 1.7 3.3 2.8 3.2 3.3 2.0 0.7 0.0 0.0 0.0 0.0 0.0 0.0 0.0 0.0 0.0 0.0 0.0 0.0 0.0 0.0 0.0 0.0 0.0 0.0 0.0
6.1 6.7 7.3 7.4 7.7 7.8 7.3 6.1 5.5 5.2 4.5 4.4 4.0 4.5 4.4 4.5 4.1 2.8 2.1 3.3 3.4 2.9 2.0 1.9 0.0 0.0 0.0 0.0 0.0 0.0 0.0 0.0 0.0 0.0 0.0 0.0 0.0 0.0 0.0 0.0 0.0 0.0 0.0
7.2 8.2 9.0 8.9 8.3 8.0 7.3 6.9 6.9 6.2 5.5 5.3 4.8 4.9 5.2 4.7 4.3 3.9 3.2 3.5 3.5 3.0 2.1 1.3 0.0 0.0 0.0 0.0 0.0 0.0 0.0 0.0 0.0 0.0 0.0 0.0 0.0 0.0 0.0 0.0 0.0 0.0 0.0
9.3 9.8 10.3 8.8 8.1 8.1 8.5 8.7 8.4 8.6 8.2 6.5 6.5 6.3 5.6 5.1 3.8 4.5 3.9 4.4 4.2 3.4 1.2 0.0 0.0 0.0 0.0 0.0 0.0 0.0 0.0 0.0 0.0 0.0 0.0 0.0 0.0 0.0 0.0 0.0 0.0 0.0 0.0
10.4 11.2 9.9 9.7 9.6 9.8 10.2 10.6 10.9 11.1 10.5 9.2 9.0 8.1 8.2 5.2 2.9 1.7 2.2 4.8 4.7 4.8 4.5 1.6 0.0 0.0 0.0 0.0 0.0 0.0 0.0 0.0 0.0 0.0 0.0 0.0 0.0 0.0 0.0 0.0 0.0 0.3 0.3
11.5 10.9 10.5 10.3 10.7 11.0 11.1 11.7 12.2 12.6 12.2 12.3 11.6 10.2 9.6 8.0 3.4 1.9 1.1 3.2 5.2 5.2 4.3 3.0 1.6 0.0 0.0 0.0 0.0 0.0 0.0 0.0 0.0 0.0 0.0 0.0 0.0 0.0 0.0 0.0 0.0 0.0 0.0
12.1 11.8 10.9 11.0 12.0 12.0 12.3 12.6 12.8 12.7 13.0 12.8 12.4 11.4 10.7 8.4 3.3 1.9 1.2 3.7 5.0 4.1 3.5 3.1 2.9 1.6 0.0 0.0 0.0 0.0 0.0 0.0 0.0 0.0 0.0 0.0 0.0 0.0 0.0 0.0 0.0 0.0 1.3
12.4 12.4 11.9 12.1 12.7 12.7 13.2 13.5 13.3 13.2 13.3 13.1 11.9 10.9 11.0 10.2 4.2 2.5 2.3 5.7 5.5 5.1 3.7 2.3 2.0 1.8 0.0 0.0 0.2 1.6 0.6 0.0 0.0 0.0 0.0 0.0 0.0 0.0 0.0 0.0 0.7 2.1 2.9
12.8 12.5 12.2 12.4 12.9 13.7 13.8 13.8 13.3 13.3 12.9 12.1 11.8 10.3 8.5 9.7 5.3 2.9 2.2 5.4 6.3 5.7 4.0 3.1 0.3 0.0 0.0 0.0 0.0 1.1 3.3 1.3 0.0 0.0 0.0 0.0 0.0 0.0 0.0 0.0 0.0 1.3 2.9
12.4 12.5 12.6 12.7 13.4 13.5 13.5 13.4 13.5 13.7 13.1 13.3 12.9 11.7 10.9 9.0 7.3 2.0 0.7 4.1 5.1 5.1 4.8 4.0 2.1 0.0 0.0 0.0 0.0 0.0 0.0 0.0 0.0 0.0 0.0 0.0 0.0 0.0 0.0 0.0 0.0 0.0 1.0
13.3 13.5 13.7 13.7 13.1 12.5 13.7 13.8 13.3 13.8 14.6 14.3 13.8 13.2 10.9 8.8 4.9 3.0 1.9 1.5 0.7 3.8 4.0 2.6 1.8 0.0 0.0 0.0 0.0 0.0 0.0 0.0 0.9 2.6 2.8 1.9 0.0 0.0 0.3 0.2 0.0 1.2 1.2
14.7 15.0 14.6 13.7 13.2 13.1 13.8 14.6 14.8 14.1 14.7 14.8 14.1 13.8 12.7 9.3 7.9 3.0 2.4 1.2 1.1 2.7 1.9 0.7 0.0 0.0 0.0 0.0 0.0 0.0 0.0 0.0 2.0 4.1 4.4 3.6 1.3 1.0 1.1 2.7 3.2 3.5 4.2
16.1 15.7 14.9 14.8 14.0 13.9 13.5 13.5 14.7 15.1 15.1 14.4 14.1 14.0 12.8 10.6 8.9 6.2 5.9 4.9 2.3 2.5 2.6 2.7 1.2 0.2 0.0 0.0 0.0 0.0 0.0 0.0 2.3 3.4 5.0 5.0 5.1 3.7 3.8 3.1 3.1 5.1 7.0
15.9 15.8 15.5 14.7 15.2 14.9 14.3 14.5 14.4 13.5 13.0 13.5 13.0 12.7 12.9 12.7 8.8 4.4 4.6 5.2 4.1 3.2 3.1 5.1 6.5 6.0 5.0 4.4 2.3 1.6 0.9 1.5 3.7 6.7 7.1 8.0 6.4 6.3 5.4 5.2 5.9 6.7 7.2
16.7 15.6 15.9 15.0 14.8 15.1 15.5 15.4 10.4 10.0 9.2 8.8 8.9 9.7 9.8 6.3 4.8 2.6 1.4 1.2 1.3 1.5 7.8 10.7 11.3 10.9 10.3 9.4 6.5 3.7 3.7 4.7 7.4 9.0 9.0 8.3 7.6 6.7 8.1 9.2 8.9 9.4 9.2
16.8 16.2 15.2 14.6 15.5 15.5 15.6 16.1 16.5 13.7 10.8 10.3 9.8 8.7 7.5 5.9 3.4 3.3 3.3 3.7 3.9 5.8 11.8 12.3 12.5 12.4 12.4 11.9 10.8 8.8 9.2 8.8 8.2 9.2 9.7 9.9 9.9 11.1 10.9 10.0 11.1 10.7 10.7
15.6 13.5 14.9 15.1 15.4 15.9 15.9 16.0 16.4 16.7 16.8 15.7 11.7 9.7 8.0 6.0 3.4 3.4 3.7 4.7 10.4 10.6 11.9 12.6 12.9 12.6 12.4 12.3 12.1 12.1 11.3 10.4 10.5 10.8 11.2 11.3 12.1 11.9 12.0 12.2 11.6 11.3 11.9
15.1 15.4 15.0 15.4 15.5 15.2 16.3 16.3 16.1 16.2 16.2 15.8 14.4 11.4 7.8 6.2 3.5 5.5 6.0 10.8 12.1 12.6 12.7 13.0 12.8 12.6 12.4 12.1 11.6 11.4 11.4 11.8 11.3 11.5 12.2 12.4 12.6 12.1 12.3 12.3 12.8 13.2 12.4
15.3 13.9 14.2 15.8 16.6 16.6 16.4 16.6 16.3 15.9 15.5 15.0 14.6 13.8 12.0 8.2 11.2 11.7 11.2 11.7 12.4 12.6 12.8 12.9 12.7 12.4 12.2 12.0 11.9 11.4 11.6 12.3 12.5 12.7 12.8 12.6 12.6 12.3 12.5 13.3 13.1 12.7 13.3
16.0 16.3 14.5 16.9 17.1 16.9 16.6 16.4 15.1 15.0 15.2 14.8 14.1 12.3 4.9 11.2 12.4 12.6 12.6 12.6 12.7 12.8 12.9 12.8 12.7 12.7 12.6 12.4 12.3 12.6 12.8 13.0 13.1 12.9 12.7 12.8 12.9 12.9 13.0 12.6 12.8 13.3 13.8
16.7 17.1 17.3 17.8 17.2 17.0 15.8 15.1 15.1 14.8 14.4 13.9 12.8 10.1 7.8 12.0 12.6 12.8 12.9 12.8 12.5 12.4 12.3 12.6 12.9 12.9 12.8 12.8 12.8 13.1 13.4 13.4 13.3 13.0 12.9 13.4 13.3 12.6 12.9 13.3 13.9 14.2 14.5
17.6 18.2 18.1 17.9 17.1 15.2 16.3 15.5 14.9 15.0 14.1 11.9 10.2 11.7 12.3 12.8 13.0 13.2 13.2 13.0 12.9 12.8 12.5 12.7 13.1 13.4 13.0 12.9 12.7 12.8 13.4 13.5 13.0 12.8 13.0 12.8 13.1 13.1 13.6 13.7 14.1 14.6 15.0
18.4 19.0 19.2 18.7 17.7 16.6 17.3 15.8 15.0 14.0 13.7 11.4 12.2 12.7 13.1 13.2 13.4 13.6 13.5 13.4 13.4 13.3 13.0 13.1 13.3 13.7 13.7 13.6 13.3 13.1 13.1 12.8 12.8 12.6 11.9 12.6 13.3 13.8 14.1 14.3 14.8 15.4 15.8
19.3 19.7 19.5 19.2 18.1 17.9 17.4 16.1 15.1 14.6 13.6 12.3 12.8 13.2 13.4 13.4 13.7 13.7 13.7 13.7 13.8 13.8 13.9 13.8 13.8 14.0 14.0 13.7 13.5 13.2 12.3 11.5 12.5 12.6 12.6 12.8 13.5 14.2 14.6 15.0 15.6 15.4 15.8
20.3 20.2 19.9 18.6 18.1 18.0 17.5 16.3 15.1 14.6 13.2 12.9 13.2 13.4 13.5 13.7 13.7 13.8 14.0 14.1 14.3 14.3 14.3 14.1 14.0 13.7 13.3 13.0 12.6 10.6 8.9 9.7 12.2 11.7 13.4 13.7 14.2 14.9 15.2 15.6 16.0 16.1 16.4